Weather Roundup
Issued by NWS Chicago, IL

Home | Current Version | Previous Version | Text Only | Print | Product List | Glossary Off
Versions: 1 2 3 4 5 6 7 8 9 10 11 12 13 14 15 16 17 18 19 20 21 22 23 24 25 26 27 28 29 30 31 32 33 34 35 36 37 38 39 40 41 42 43 44 45 46 47 48 49 50

000
NZUS59 KLOT 102306
HRRLOT

CHICAGO AREA WEATHER ROUNDUP
NATIONAL WEATHER SERVICE CHICAGO/ROMEOVILLE IL
600 PM CDT THU JUL 10 2014

NOTE: "FAIR" INDICATES FEW OR NO CLOUDS BELOW 12,000 FEET WITH NO
SIGNIFICANT WEATHER AND/OR OBSTRUCTIONS TO VISIBILITY.

* THESE STATIONS ARE NOT UNDER NWS QUALITY CONTROL. THEY ALSO MAY NOT
  REPORT WEATHER SUCH AS PRECIPITATION OR FOG.

ILZ005-006-012>014-019>023-110000-
NORTHEAST ILLINOIS

CITY           SKY/WX    TMP DP  RH WIND       PRES   REMARKS
OHARE          MOSUNNY   75  52  44 E10       30.14S
MIDWAY         MOSUNNY   75  51  43 E8        30.15R
AURORA         SUNNY     80  54  40 SW5       30.13F HX  80
LANSING*       SUNNY     73  46  37 NE8       30.15F
JOLIET*        SUNNY     77  54  44 E9        30.14S
WAUKEGAN       SUNNY     69  55  60 E9        30.14F
DUPAGE AIRPORT MOSUNNY   75  56  51 E8        30.13S
WHEELING       SUNNY     74  53  48 E8        30.16S
KANKAKEE*      MOSUNNY   77  57  50 E7        30.14S
MORRIS*        PTSUNNY   78  57  48 S3        30.13S
LEWIS AIRPORT* SUNNY     76  55  48 E9        30.14S
NORTHERLY IS     N/A     70  56  61 E8          N/A
$$

WIZ051-052-058>065-066-070>072-110000-
SOUTHEAST WISCONSIN

CITY           SKY/WX    TMP DP  RH WIND       PRES   REMARKS
MILWAUKEE      MOSUNNY   68  53  58 SE12      30.15F
KENOSHA*       SUNNY     71  54  54 SE10      30.15F
RACINE*        SUNNY     69  54  58 SE10      30.16F
BURLINGTON     SUNNY     73  58  59 SE12      30.13F
WAUKESHA       SUNNY     73  57  56 SE10      30.16S
WEST BEND      SUNNY     70  50  49 E9G16     30.14S
$$

INZ001>003-010>013-019-020-110000-
NORTHWEST INDIANA

CITY           SKY/WX    TMP DP  RH WIND       PRES   REMARKS
GARY*          SUNNY     73  50  43 E6        30.15S
MICHIGAN CITY* NOT AVBL
RENSSELAER*    NOT AVBL
VALPARAISO     SUNNY     74  47  38 NE7       30.16S
$$

LMZ740>746-110000-
SOUTHERN LAKE MICHIGAN

STATION/POSITION TIME  SKY/WX   TEMP WIND        PRES    VSBY
                                AIR  DIR/SP/G
                 (UTC)          (F)  (DEG/KT/KT) (MB)    (MI)
HARRISON CRIB    2300            68  100/ 10/ 12   N/A
BURNHAM HARBOR   2300            70   90/  7/ 11   N/A
CALUMET HARBOR   2200            70   70/  9/ 11 1021.8F
BURNS HARBOR     NOT AVBL
MICHIGAN CITY    2300            69   10/  9/ 10   N/A
$$

ABBREVIATIONS USED IN REMARKS
   TC - TEMPERATURE IN CELSIUS
  WCI - WIND CHILL INDEX
   HX - HEAT INDEX
  VSB - VISIBILITY
$$


USA.gov is the U.S. government's official web portal to all federal, state and local government web resources and services.